Location: Santa Teresa Spring
(37.2333°N, 121.7000°W)
Time: 01:34:36
(UTC-07:00)

ISS - Visible Passes

Search period start: 05 May 2016 00:00
Search period end: 15 May 2016 00:00
Orbit: 402 x 405 km, 51.6° (Epoch: 05 May)

Date Brightness Start Highest point End Pass type
(mag) Time Alt. Az. Time Alt. Az. Time Alt. Az.
07 May -2.7 05:29:35 10° SSW 05:32:44 50° SE 05:35:55 10° ENE visible
08 May -1.5 04:38:46 17° S 04:40:18 24° SE 04:42:59 10° ENE visible
09 May -0.5 03:48:23 12° ESE 03:48:23 12° ESE 03:49:12 10° ESE visible
09 May -3.0 05:21:01 12° WSW 05:24:00 58° NW 05:27:14 10° NE visible
10 May -3.2 04:30:32 42° SSW 04:31:26 66° SE 04:34:40 10° NE visible
11 May -1.3 03:39:59 24° E 03:39:59 24° E 03:41:50 10° ENE visible
11 May -1.7 05:12:37 10° W 05:15:22 26° NNW 05:18:11 10° NNE visible
12 May -2.7 04:21:58 39° WNW 04:22:38 46° NW 04:25:49 10° NE visible
13 May -1.7 03:31:16 34° NE 03:31:16 34° NE 03:33:16 10° NE visible
13 May -0.8 05:04:51 10° WNW 05:06:49 15° NNW 05:08:48 10° NNE visible
14 May -1.5 04:13:07 20° NW 04:13:57 22° NNW 04:16:37 10° NNE visible
